SL-14 DEB, 45327

Orbit data source: Space-Track

SL-14 DEB, 45327 is space debris in LEO originally from a launch on Thu, 15 Aug 1991 UTC launched from the Plesetsk Missile And Space Complex (PKMTR). Debris objects in space refer to the collection of defunct objects orbiting the Earth. Examples of debris include non-operational satellites, rocket bodies, and fragments generated from explosions, collisions, or faulty payload assembly.

Loading next visibility...
Identifier
45327, 1991-056BR
Orbit
LEO
Country
Flag of CISCIS
Related business
Manufacturer
Unknown
Mission
Spacecraft
Bus & Motor
Unknown
Mass
Unknown
Launch date (UTC)
1991-08-15 (35 years ago)
Launch vehicle
Unknown
Launch site
Plesetsk Missile And Space Complex (PKMTR)
Object type
Payload
Rocket body
Debris
Shape & HBR
Unknown shape, 0.1 m
Radar Cross Section
Small (<0.1 m²)

Expand to show TLE details & history
Last TLE update: 17 hours ago

TLE from 17 hours ago
0 SL-14 DEB
1 45327U 91056BR  26174.68589620  .00001036  00000-0  18286-2 0  9993
2 45327  82.5622  77.7380 0072382 203.1670 156.6198 13.40852836310405
Epoch: 2026-06-23T16:27Z
TLE epoch observation values (Epoch: 2026-06-23T16:27:41.431Z)
Latitude
-0.00006°
Longitude
-81.03854°
Altitude
1,158.74 km
Speed
7.25 km/s
True Right ascension
05h 10m 57s
True Declination
0° 00' 00"
Sunlit
Object was in daylight at epoch
Visualization orbit readout
Latitude
Unknown
Longitude
Unknown
Altitude
Unknown
Speed
Unknown
Apparent Right ascension
Unknown
Apparent Declination
Unknown
Sunlit
N/A
Visualization observer readout
Local Sidereal Time
20:18:49
Azimuth
Unknown
Elevation
Unknown
Doppler factor
Unknown
Orbital elements
Apogee altitude
1,157.467 km
Perigee altitude
1,049.163 km
Semi-major axis
7,481.452 km
Eccentricity
0.00724
Inclination
82.5622°
RAAN
77.738°
Arg. of periapsis
203.167°
True anomaly
156.94623°
Mean anomaly
156.6198°
Eccentric anomaly
156.78329°
Mean motion
3.35401 °/min
Orbital period
107.33 mins
BSTAR
0.0018286
Loading maneuver chart data...
Computing Atmospheric mass density...
Loading historical data...
Loading historical data...
Loading historical data...
Loading historical data...
Loading historical data...
Loading historical data...
Loading historical data...

Documentation

Showing up to 5 results
|